Regional Weather Roundup
Issued by NWS

Home | Current Version | Previous Version | Text Only | Print | Product List | Glossary On
Versions: 1 2 3 4 5 6 7 8 9 10 11 12 13 14 15 16 17 18 19 20 21 22 23 24 25 26 27
000
ASUS45 KBOU 282107
RWRCO

WEATHER ROUNDUP FOR COLORADO
NATIONAL WEATHER SERVICE DENVER/BOULDER CO
300 PM MDT SUN AUG 28 2016

NOTE: "FAIR" INDICATES FEW OR NO CLOUDS BELOW 12000 FEET WITH NO
SIGNIFICANT WEATHER AND/OR OBSTRUCTIONS TO VISIBILITY.

COZ001>005-013-030-031-282200-
...NORTHWEST COLORADO...

CITY           SKY/WX    TMP DP  RH WIND       PRES   REMARKS
CRAIG          FAIR      83  26  12 VRB7      30.24F
HAYDEN         FAIR      79  30  17 NW7       30.26F
MEEKER         PTSUNNY   75  41  29 VRB5      30.27F
MOUNT WERNER   NOT AVBL
STEAMBOAT SPGS FAIR      78  31  17 S5        30.26F
WALDEN         FAIR      72  25  17 CALM      30.37S
$$

COZ006>008-011-282200-
...WEST CENTRAL VALLEYS...

CITY           SKY/WX    TMP DP  RH WIND       PRES   REMARKS
GRAND JUNCTION FAIR      73  51  46 SW6       30.22F
MONTROSE       FAIR      76  43  30 N12       30.24F
EAGLE          PTSUNNY   63  46  55 NW10G21   30.31R
RIFLE          PTSUNNY   77  45  32 NW6       30.23F
DELTA          FAIR      84  44  24 SW10G17   30.21F
NUCLA          FAIR     N/A N/A N/A NW13      30.32F
$$

COZ017>023-064>068-282200-
...SOUTHWEST COLORADO...

CITY           SKY/WX    TMP DP  RH WIND       PRES   REMARKS
DURANGO        FAIR      72  42  34 MISG      30.29F
CORTEZ         FAIR      72  49  44 W3        30.27F
PAGOSA SPRINGS FAIR      70  27  20 W5        30.34F
TELLURIDE      PTSUNNY   61  44  53 W10G20    30.43F THUNDER
WOLF CREEK PAS FAIR      50  34  53 SW10G20   30.62F
$$

COZ009-010-012-014-032>034-037-058>063-282200-
...CENTRAL COLORADO...

CITY           SKY/WX    TMP DP  RH WIND       PRES   REMARKS
ASPEN          PTSUNNY   69  36  29 CALM      30.34F
BUENA VISTA    FAIR      72  32  22 CALM      30.32F THUNDER
COPPER MTN     TSTM      50  36  57 NW3       30.62F
BERTHOUD PASS  TSTM      41  28  60 N6        30.67R
COTTONWOOD PAS FAIR      64  34  32 SE3       30.46F
GUNNISON       FAIR      70  39  32 E3        30.34F
KREMMLING      FAIR      70  32  24 S6        30.36S
LEADVILLE      LGT RAIN  54  38  54 E6        30.46F
MONARCH PASS   PTSUNNY   50  36  57 NE7       30.71F THUNDER
SALIDA         FAIR      76  37  24 SE5       30.37F
SUNLIGHT       PTSUNNY   54  41  62 SE3       30.59S
WILKERSON PASS PTSUNNY   54  36  50 N5        30.61F
$$

COZ069>075-282200-
...SAN LUIS VALLEY/SANGRE DE CRISTO MOUNTAINS...

CITY           SKY/WX    TMP DP  RH WIND       PRES   REMARKS
ALAMOSA        FAIR      73  36  25 VRB7      30.31F
LA VETA PASS   PTSUNNY   63  34  34 SW3       30.49F
SAGUACHE       FAIR      72  34  25 S9G17     30.34F
$$

COZ035-036-038>040-282200-
...NORTHERN COLORADO FRONT RANGE...

CITY           SKY/WX    TMP DP  RH WIND       PRES   REMARKS
DENVER INTL AP PTSUNNY   85  36  17 VRB7      30.15F
DMNS CITY PARK   N/A     84  35  17 S5G13     30.14S
AURORA         PTSUNNY   83  36  18 N5        30.17F
FRONT RANGE AP PTSUNNY   86  32  14 SE3       30.16F
ERIE MUNI ARPT FAIR      84  28  13 CALM      30.13F
BOULDER MUN AP FAIR      84  34  16 CALM      30.14F
CENTENNIAL     PTSUNNY   81  34  18 S5        30.19S
BROOMFIELD     PTSUNNY   84  32  15 NW3       30.17F
FORT COLLINS   FAIR      86  34  15 S3        30.09F
LONGMONT       FAIR      87  34  15 E5        30.15S
$$

COZ041-046-047-076>085-087-088-282200-
...PIKES PEAK/PALMER DIVIDE AND SOUTHERN FOOTHILLS...

CITY           SKY/WX    TMP DP  RH WIND       PRES   REMARKS
COLO. SPRINGS  PTSUNNY   78  46  32 N14       30.23R
A. F. ACADEMY  FAIR      71  47  43 NW20      30.25F
SCHRIEVER AFB  NOT AVBL
ELLICOTT       NOT AVBL
FALCON         PTSUNNY   70  44  38 N8        30.29R
FORT CARSON    FAIR      82  44  26 N23G29    30.17F
LIMON          FAIR      84  42  22 SE13G21   30.15F
MONUMENT HILL  TSTM      57  45  62 NW7G24    30.33R
TRINIDAD       FAIR      85  41  21 N10       30.17F
$$

COZ042>045-048>051-090-091-282200-
...NORTHEAST COLORADO...

CITY           SKY/WX    TMP DP  RH WIND       PRES   REMARKS
GREELEY ARPT   FAIR      90  43  19 CALM      30.11F
AKRON          FAIR      84  44  24 S10       30.12F
BURLINGTON     FAIR      84  53  34 E16G23    30.12F
WRAY           NOT AVBL
STERLING       FAIR      82  52  34 E10       30.07R
HOLYOKE        FAIR      88  50  27 SE14G21   30.09S
FORT MORGAN    FAIR      90  38  15 E10G16    30.10F
$$

COZ086-089-092>099-282200-
...SOUTHEAST COLORADO...

CITY           SKY/WX    TMP DP  RH WIND       PRES   REMARKS
PUEBLO         FAIR      89  43  20 VRB5      30.08F
LA JUNTA       FAIR      90  44  20 SE13G20   30.06F
LAMAR          FAIR      86  57  37 E13       30.03F
SPRINGFIELD      N/A     83  55  38 S13G21    30.09F
$$




USA.gov is the U.S. government's official web portal to all federal, state and local government web resources and services.